Regional Weather Roundup
Issued by NWS State College, PA

Home | Current Version | Previous Version | Text Only | Print | Product List | Glossary On
Versions: 1 2 3 4 5 6 7 8 9 10 11 12 13 14 15 16 17 18 19 20 21 22 23 24 25 26 27 28 29 30 31 32 33 34 35 36 37 38 39 40 41 42 43 44 45 46 47 48 49 50
000
ASUS41 KCTP 220903
RWRCTP

REGIONAL WEATHER ROUNDUP
NATIONAL WEATHER SERVICE STATE COLLEGE PA
500 AM EDT TUE MAY 22 2018

Note: "fair" indicates few or no clouds below 12,000 feet with no
significant weather and/or obstructions to visibility.

* = STATION THAT DOES NOT REPORT PRECIPITATION /E.G. RAIN...SNOW...ETC/
    THUNDER OR FOG.

PAZ002>004-007>009-013>016-020>023-029>032-221000-
WESTERN PENNSYLVANIA

CITY           SKY/WX    TMP DP  RH WIND       PRES   REMARKS
ERIE           CLOUDY    66  60  81 S13       29.98F
MEADVILLE      CLOUDY    61  61 100 S5        30.02F
FRANKLIN*      LGT RAIN  61  60  97 CALM      30.05F
NEW CASTLE     LGT RAIN  63  63 100 CALM      30.04F
BEAVER COUNTY  NOT AVBL
BUTLER*        LGT RAIN  63  62  97 CALM      30.06F
PITTSBURGH INT LGT RAIN  65  65 100 S5        30.05F
PITTSBURGH     CLOUDY    64  64 100 S6        30.05F FOG
INDIANA*       CLOUDY    64  64 100 SW7       30.12S FOG
LATROBE        LGT RAIN  64  64 100 S3        30.09F
WASHINGTON CO* MOCLDY    64  63  96 CALM      30.09F
$$

PAZ004>006-010>012-017>019-024>028-033>037-041-042-045-046-049>053-221000-
CENTRAL PENNSYLVANIA

CITY           SKY/WX    TMP DP  RH WIND       PRES   REMARKS
BRADFORD       LGT RAIN  56  55  97 SE5       30.07F FOG
DUBOIS         MOCLDY    63  61  93 SW5       30.07R
CLEARFIELD     LGT RAIN  60  58  92 CALM      30.08S
JOHNSTOWN      LGT RAIN  63  61  93 W9        30.11S
ALTOONA        LGT RAIN  69  62  78 SW9       30.08S
STATE COLLEGE  LGT RAIN  64  58  82 CALM      30.08R
WILLIAMSPORT   CLOUDY    59  57  93 E3        30.08S
SELINSGROVE    CLOUDY    58  56  93 CALM      30.09R
FT INDIANTOWN  LGT RAIN  61  61 100 CALM      30.11S
CAPITAL CITY   CLOUDY    66  62  87 E6        30.09S
HARRISBURG     CLOUDY    65  62  90 SE9       30.09S
YORK           CLOUDY    66  61  84 CALM      30.09F
$$

PAZ038>040-043-044-047-048-054-055-060>062-067>071-221000-
EASTERN PENNSYLVANIA

CITY           SKY/WX    TMP DP  RH WIND       PRES   REMARKS
SCRANTON       CLOUDY    60  52  74 E6        30.10F
MOUNT POCONO   FAIR      53  53 100 CALM      30.13F
ALLENTOWN      FAIR      62  54  74 CALM      30.12F
QUAKERTOWN*    PTSUNNY   57  57 100 CALM      30.13F
READING        CLOUDY    63  57  81 S7        30.10F
LANCASTER      LGT RAIN  62  59  90 E5        30.12S
COATESVILLE    PTSUNNY   59  55  88 CALM      30.14S
POTTSTOWN      CLOUDY    59  56  89 CALM      30.14S
BLUE BELL      FAIR      55  55 100 CALM      30.14F
DOYLESTOWN     MOCLDY    59  53  80 CALM      30.12F
WILLOW GROVE   NOT AVBL
NORTH PHILA    FAIR      61  53  75 E3        30.14F
PHILADELPHIA   CLOUDY    60  55  83 CALM      30.13F
$$




USA.gov is the U.S. government's official web portal to all federal, state and local government web resources and services.